This is the latest recevied weather packets stored in our database for station/object KE0QIB. If no packets are shown the sender has not sent any weather packets the latest 10 day(s).
| Time | Temp. | Humidity | Pressure | Rain* | Wind** | Luminosity | Snow |
|---|---|---|---|---|---|---|---|
| 1777722422 | 8.89° C | 42% | 1001.4 hPa | 0 mm | - | - | - |
| 1777722122 | 8.33° C | 43% | 1001.4 hPa | 0 mm | - | - | - |
| 1777721822 | 8.33° C | 43% | 1001.5 hPa | 0 mm | - | - | - |
| 1777721522 | 8.33° C | 43% | 1001.5 hPa | 0 mm | - | - | - |
| 1777721222 | 8.89° C | 42% | 1001.5 hPa | 0 mm | - | - | - |
| 1777720922 | 8.89° C | 42% | 1000.9 hPa | 0 mm | - | - | - |
| 1777720622 | 9.44° C | 41% | 1000.9 hPa | 0 mm | - | - | - |
| 1777720322 | 8.89° C | 41% | 1000.9 hPa | 0 mm | - | - | - |
| 1777720022 | 8.89° C | 41% | 1001 hPa | 0 mm | - | - | - |
| 1777719722 | 8.89° C | 41% | 1001 hPa | 0 mm | - | - | - |
| 1777719422 | 8.89° C | 41% | 1001 hPa | 0 mm | - | - | - |
| 1777719122 | 8.89° C | 41% | 1001.3 hPa | 0 mm | - | - | - |
| 1777718822 | 8.89° C | 42% | 1001.3 hPa | 0 mm | - | - | - |
| 1777718522 | 8.89° C | 42% | 1001.3 hPa | 0 mm | - | - | - |
| 1777718222 | 8.89° C | 42% | 1001.7 hPa | 0 mm | - | - | - |
| 1777717922 | 8.89° C | 42% | 1001.7 hPa | 0 mm | - | - | - |
| 1777717622 | 8.89° C | 42% | 1001.7 hPa | 0 mm | - | - | - |
| 1777717322 | 8.89° C | 43% | 1001.8 hPa | 0 mm | - | - | - |
| 1777717022 | 8.33° C | 43% | 1001.8 hPa | 0 mm | - | - | - |
| 1777716722 | 8.33° C | 43% | 1001.8 hPa | 0 mm | - | - | - |
| 1777716422 | 8.33° C | 44% | 1002.3 hPa | 0 mm | - | - | - |
| 1777716122 | 7.78° C | 45% | 1002.3 hPa | 0 mm | - | - | - |
| 1777715822 | 7.78° C | 46% | 1002.3 hPa | 0 mm | - | - | - |
| 1777715522 | 7.22° C | 47% | 1002.5 hPa | 0 mm | - | - | - |
| 1777715222 | 7.22° C | 47% | 1002.5 hPa | 0 mm | - | - | - |
* Rain latest hour (hover to see other rain measurements)
** Current wind speed in m/s (hover to see current wind gust speed)